M I D A S
Marine Information and Data Acquisition System
Tripno 987 of the Zeeleeuw from 2005-11-24 10:02:20 to 2005-11-24 11:46:52
Back to CruiseResearch ActivitiesStationsMapUnderway DataData graphs

EquipmentUnitsComments
TimeDGPSUTC
LatitudeDGPSDM.mWGS84
LongitudeDGPSDM.mWGS84
SpeedMeteo Stationm/sRelative wind speed
DirectionMeteo StationdegRelative wind direction
TemperatureMeteo Stationdeg CelciusAir temperature
PressureMeteo StationPaAtmospheric pressure
HumidityMeteo Station%Relative humidity
Missing or incorrect values are displayed as -999
Metereological data collected by the RV Zeeleeuw from 2005-11-24 06:05:56 to 2005-11-24 12:00:24
                                                                                    Next 1000 lines
Time Latitude Longitude Speed Direction Temperature Pressure Humidity
2005-11-24 06:06:04 51°13.6 2°56.095 -999 103 4.9 102230 99
2005-11-24 06:06:10 51°13.599 2°56.095 -999 110 4.9 102230 99
2005-11-24 06:06:16 51°13.599 2°56.095 -999 103 4.9 102220 99
2005-11-24 06:06:20 51°13.599 2°56.095 -999 107 4.9 102220 99
2005-11-24 06:06:26 51°13.599 2°56.094 -999 98 4.9 102220 99
2005-11-24 06:06:31 51°13.599 2°56.094 -999 93 4.9 102220 99
2005-11-24 06:06:35 51°13.599 2°56.095 -999 93 4.9 102230 99
2005-11-24 06:06:40 51°13.599 2°56.094 -999 106 4.9 102230 99
2005-11-24 06:06:46 51°13.599 2°56.094 -999 111 4.9 102230 99
2005-11-24 06:06:50 51°13.599 2°56.094 -999 99 4.9 102230 99
2005-11-24 06:06:56 51°13.598 2°56.094 -999 91 4.9 102230 99
2005-11-24 06:07:00 51°13.598 2°56.094 -999 86 4.9 102230 99
2005-11-24 06:07:06 51°13.598 2°56.094 -999 105 4.9 102230 99
2005-11-24 06:07:11 51°13.598 2°56.094 -999 103 4.9 102230 99
2005-11-24 06:07:16 51°13.598 2°56.094 -999 104 4.9 102220 99
2005-11-24 06:07:20 51°13.598 2°56.094 -999 123 4.9 102220 99
2005-11-24 06:07:26 51°13.598 2°56.094 -999 122 4.9 102230 99
2005-11-24 06:07:31 51°13.598 2°56.094 -999 131 4.9 102230 99
2005-11-24 06:07:36 51°13.598 2°56.094 -999 126 4.9 102230 99
2005-11-24 06:07:40 51°13.598 2°56.094 -999 106 4.9 102230 99
2005-11-24 06:07:46 51°13.598 2°56.094 -999 82 4.8 102230 99
2005-11-24 06:07:50 51°13.598 2°56.094 -999 119 4.8 102230 99
2005-11-24 06:07:56 51°13.598 2°56.094 -999 118 4.9 102230 99
2005-11-24 06:08:00 51°13.599 2°56.094 -999 85 4.9 102230 99
2005-11-24 06:08:06 51°13.599 2°56.094 -999 81 4.9 102230 99
2005-11-24 06:08:10 51°13.599 2°56.094 -999 117 4.9 102230 99
2005-11-24 06:08:15 51°13.599 2°56.094 -999 117 4.9 102230 99
2005-11-24 06:08:21 51°13.599 2°56.094 -999 130 4.9 102230 99
2005-11-24 06:08:26 51°13.599 2°56.094 -999 141 4.9 102230 99
2005-11-24 06:08:31 51°13.599 2°56.095 -999 108 4.9 102230 99
2005-11-24 06:08:36 51°13.599 2°56.095 -999 117 4.9 102230 99
2005-11-24 06:08:40 51°13.599 2°56.095 -999 93 4.9 102230 99
2005-11-24 06:08:46 51°13.599 2°56.095 -999 96 4.9 102230 99
2005-11-24 06:08:50 51°13.599 2°56.095 -999 108 4.9 102230 99
2005-11-24 06:08:56 51°13.598 2°56.095 -999 110 4.9 102230 99
2005-11-24 06:09:00 51°13.598 2°56.095 -999 119 4.9 102230 99
2005-11-24 06:09:06 51°13.598 2°56.095 -999 113 4.9 102230 99
2005-11-24 06:09:11 51°13.599 2°56.095 -999 112 4.9 102230 99
2005-11-24 06:09:16 51°13.599 2°56.094 -999 119 4.9 102230 99
2005-11-24 06:09:20 51°13.599 2°56.095 -999 123 4.9 102230 99
2005-11-24 06:09:26 51°13.599 2°56.095 -999 127 4.9 102220 99
2005-11-24 06:09:31 51°13.598 2°56.095 -999 112 4.9 102220 99
2005-11-24 06:09:36 51°13.598 2°56.095 -999 83 4.9 102230 99
2005-11-24 06:09:40 51°13.598 2°56.095 -999 86 4.9 102230 99
2005-11-24 06:09:45 51°13.598 2°56.095 -999 80 4.9 102230 99
2005-11-24 06:09:51 51°13.598 2°56.094 -999 98 4.9 102230 99
2005-11-24 06:09:56 51°13.598 2°56.094 -999 90 4.9 102220 99
2005-11-24 06:10:00 51°13.598 2°56.094 -999 88 4.9 102220 99
2005-11-24 06:10:06 51°13.599 2°56.094 -999 92 4.9 102220 99
2005-11-24 06:10:11 51°13.599 2°56.094 -999 75 4.9 102220 99
2005-11-24 06:10:16 51°13.599 2°56.095 -999 77 4.9 102220 99
2005-11-24 06:10:20 51°13.599 2°56.095 -999 64 4.9 102220 99
2005-11-24 06:10:25 51°13.599 2°56.095 -999 81 4.9 102220 99
2005-11-24 06:10:31 51°13.599 2°56.095 -999 72 4.9 102220 99
2005-11-24 06:10:36 51°13.599 2°56.095 -999 78 4.9 102220 99
2005-11-24 06:10:41 51°13.598 2°56.095 -999 94 4.9 102220 99
2005-11-24 06:10:46 51°13.599 2°56.095 -999 101 4.9 102220 99
2005-11-24 06:10:51 51°13.599 2°56.095 -999 104 4.9 102220 99
2005-11-24 06:10:55 51°13.599 2°56.095 -999 105 4.9 102220 99
2005-11-24 06:11:00 51°13.599 2°56.095 -999 97 4.9 102220 99
2005-11-24 06:11:06 51°13.599 2°56.095 -999 106 4.9 102220 99
2005-11-24 06:11:10 51°13.599 2°56.095 -999 113 4.9 102220 99
2005-11-24 06:11:15 51°13.599 2°56.095 -999 115 5 102220 99
2005-11-24 06:11:20 51°13.599 2°56.095 -999 112 5 102220 99
2005-11-24 06:11:24 51°13.599 2°56.095 -999 113 5 102220 99
2005-11-24 06:11:31 51°13.599 2°56.095 -999 129 5 102220 99
2005-11-24 06:11:36 51°13.599 2°56.095 -999 119 5 102220 99
2005-11-24 06:11:40 51°13.598 2°56.095 -999 113 5 102220 99
2005-11-24 06:11:44 51°13.598 2°56.095 -999 126 5 102220 99
2005-11-24 06:11:50 51°13.598 2°56.095 -999 140 5 102220 99
2005-11-24 06:11:56 51°13.598 2°56.095 -999 136 4.9 102210 99
2005-11-24 06:12:00 51°13.598 2°56.095 -999 134 4.9 102210 99
2005-11-24 06:12:05 51°13.598 2°56.095 -999 119 4.9 102220 99
2005-11-24 06:12:11 51°13.598 2°56.094 -999 127 4.9 102220 99
2005-11-24 06:12:15 51°13.598 2°56.094 -999 128 5 102210 99
2005-11-24 06:12:20 51°13.598 2°56.091 -999 127 5 102210 99
2005-11-24 06:12:25 51°13.598 2°56.089 -999 129 5 102210 99
2005-11-24 06:12:30 51°13.598 2°56.086 -999 125 5 102210 99
2005-11-24 06:12:35 51°13.599 2°56.083 -999 131 4.9 102210 99
2005-11-24 06:12:40 51°13.599 2°56.08 -999 134 4.9 102210 99
2005-11-24 06:12:44 51°13.599 2°56.077 -999 123 5 102210 99
2005-11-24 06:12:50 51°13.6 2°56.072 -999 140 5 102210 99
2005-11-24 06:12:56 51°13.601 2°56.067 -999 142 4.9 102210 99
2005-11-24 06:13:00 51°13.602 2°56.064 -999 136 4.9 102210 99
2005-11-24 06:13:06 51°13.602 2°56.06 -999 168 4.9 102210 99
2005-11-24 06:13:10 51°13.603 2°56.058 -999 135 4.9 102210 99
2005-11-24 06:13:16 51°13.602 2°56.057 -999 136 4.9 102210 99
2005-11-24 06:13:20 51°13.602 2°56.056 -999 131 4.9 102210 99
2005-11-24 06:13:26 51°13.602 2°56.057 -999 132 4.9 102210 99
2005-11-24 06:13:30 51°13.602 2°56.058 -999 122 4.9 102210 99
2005-11-24 06:13:36 51°13.601 2°56.061 -999 111 4.9 102210 99
2005-11-24 06:13:40 51°13.6 2°56.063 -999 68 4.9 102210 99
2005-11-24 06:13:46 51°13.599 2°56.067 -999 71 4.9 102210 99
2005-11-24 06:13:50 51°13.598 2°56.07 -999 70 4.9 102210 99
2005-11-24 06:13:55 51°13.597 2°56.075 -999 65 4.9 102210 99
2005-11-24 06:14:00 51°13.596 2°56.08 -999 75 4.9 102210 99
2005-11-24 06:14:05 51°13.594 2°56.085 -999 80 4.9 102210 99
2005-11-24 06:14:10 51°13.592 2°56.091 -999 71 4.9 102210 99
2005-11-24 06:14:15 51°13.589 2°56.097 -999 77 4.9 102210 99
2005-11-24 06:14:20 51°13.587 2°56.103 -999 68 4.9 102210 99
2005-11-24 06:14:25 51°13.584 2°56.111 -999 80 4.9 102200 99
2005-11-24 06:14:30 51°13.581 2°56.117 -999 48 4.9 102200 99
2005-11-24 06:14:35 51°13.577 2°56.125 -999 59 4.9 102210 99
2005-11-24 06:14:40 51°13.574 2°56.132 -999 59 4.9 102210 99
2005-11-24 06:14:45 51°13.571 2°56.14 -999 66 4.9 102200 99
2005-11-24 06:14:50 51°13.567 2°56.148 -999 61 4.9 102200 99
2005-11-24 06:14:55 51°13.563 2°56.156 -999 32 4.9 102210 99
2005-11-24 06:15:00 51°13.56 2°56.165 -999 37 4.9 102210 99
2005-11-24 06:15:05 51°13.556 2°56.173 -999 48 4.9 102200 99
2005-11-24 06:15:10 51°13.552 2°56.181 -999 53 4.9 102200 99
2005-11-24 06:15:15 51°13.549 2°56.188 -999 57 4.9 102200 99
2005-11-24 06:15:20 51°13.546 2°56.194 -999 48 4.9 102200 99
2005-11-24 06:15:25 51°13.544 2°56.199 -999 62 4.9 102200 99
2005-11-24 06:15:30 51°13.542 2°56.203 -999 78 4.9 102200 99
2005-11-24 06:15:35 51°13.539 2°56.207 -999 67 4.9 102200 99
2005-11-24 06:15:40 51°13.538 2°56.209 -999 68 4.9 102200 99
2005-11-24 06:15:45 51°13.536 2°56.211 -999 56 4.9 102200 99
2005-11-24 06:15:50 51°13.535 2°56.212 -999 70 4.9 102200 99
2005-11-24 06:15:55 51°13.534 2°56.213 -999 72 4.9 102200 99
2005-11-24 06:16:00 51°13.534 2°56.214 -999 70 4.9 102200 99
2005-11-24 06:16:04 51°13.534 2°56.214 -999 63 4.9 102210 99
2005-11-24 06:16:10 51°13.534 2°56.214 -999 77 4.9 102210 99
2005-11-24 06:16:15 51°13.535 2°56.214 -999 62 4.9 102200 99
2005-11-24 06:16:20 51°13.537 2°56.214 -999 72 4.9 102200 99
2005-11-24 06:16:25 51°13.538 2°56.213 -999 69 4.9 102210 99
2005-11-24 06:16:30 51°13.54 2°56.214 -999 93 4.9 102210 99
2005-11-24 06:16:36 51°13.542 2°56.214 -999 100 4.9 102200 99
2005-11-24 06:16:40 51°13.543 2°56.214 -999 79 4.9 102200 99
2005-11-24 06:16:46 51°13.544 2°56.214 -999 66 4.9 102210 99
2005-11-24 06:16:50 51°13.544 2°56.214 -999 41 4.9 102210 99
2005-11-24 06:16:56 51°13.543 2°56.214 -999 35 4.9 102200 99
2005-11-24 06:17:00 51°13.542 2°56.214 -999 23 4.9 102200 99
2005-11-24 06:17:04 51°13.542 2°56.214 -999 26 4.9 102200 99
2005-11-24 06:17:10 51°13.541 2°56.213 -999 10 4.9 102200 99
2005-11-24 06:17:16 51°13.539 2°56.212 -999 12 4.9 102200 99
2005-11-24 06:17:20 51°13.538 2°56.211 -999 14 4.9 102200 99
2005-11-24 06:17:26 51°13.536 2°56.21 -999 15 4.9 102200 99
2005-11-24 06:17:31 51°13.535 2°56.209 -999 358 4.9 102200 99
2005-11-24 06:17:36 51°13.534 2°56.209 -999 3 4.9 102200 99
2005-11-24 06:17:40 51°13.534 2°56.209 -999 8 4.9 102200 99
2005-11-24 06:17:45 51°13.534 2°56.209 -999 9 4.9 102200 99
2005-11-24 06:17:50 51°13.534 2°56.21 -999 339 4.9 102200 99
2005-11-24 06:17:55 51°13.535 2°56.211 -999 352 4.9 102200 99
2005-11-24 06:18:00 51°13.535 2°56.212 -999 341 4.9 102200 99
2005-11-24 06:18:05 51°13.536 2°56.214 -999 335 4.9 102200 99
2005-11-24 06:18:10 51°13.537 2°56.216 -999 315 4.9 102200 99
2005-11-24 06:18:15 51°13.538 2°56.218 -999 332 4.9 102200 99
2005-11-24 06:18:20 51°13.539 2°56.22 -999 38 4.9 102200 99
2005-11-24 06:18:26 51°13.54 2°56.221 -999 324 4.9 102200 99
2005-11-24 06:18:31 51°13.54 2°56.221 -999 329 4.9 102200 99
2005-11-24 06:18:36 51°13.539 2°56.22 -999 331 5 102200 99
2005-11-24 06:18:40 51°13.539 2°56.218 -999 359 5 102200 99
2005-11-24 06:18:46 51°13.538 2°56.214 -999 6 4.9 102200 99
2005-11-24 06:18:50 51°13.538 2°56.211 -999 327 4.9 102200 99
2005-11-24 06:18:56 51°13.538 2°56.205 -999 325 4.9 102200 99
2005-11-24 06:19:00 51°13.538 2°56.202 -999 323 4.9 102200 99
2005-11-24 06:19:06 51°13.539 2°56.196 -999 322 5 102200 99
2005-11-24 06:19:11 51°13.54 2°56.191 -999 228 5 102200 99
2005-11-24 06:19:15 51°13.541 2°56.188 -999 317 4.9 102200 99
2005-11-24 06:19:20 51°13.542 2°56.183 -999 325 4.9 102200 99
2005-11-24 06:19:24 51°13.543 2°56.18 -999 322 4.9 102200 99
2005-11-24 06:19:30 51°13.544 2°56.174 -999 345 4.9 102200 99
2005-11-24 06:19:35 51°13.546 2°56.17 -999 326 4.9 102200 99
2005-11-24 06:19:40 51°13.547 2°56.166 -999 327 4.9 102200 99
2005-11-24 06:19:45 51°13.549 2°56.162 -999 317 5 102200 99
2005-11-24 06:19:50 51°13.55 2°56.158 -999 312 5 102200 99
2005-11-24 06:19:55 51°13.552 2°56.154 -999 43 5 102210 99
2005-11-24 06:20:00 51°13.554 2°56.15 -999 312 5 102210 99
2005-11-24 06:20:05 51°13.555 2°56.147 -999 313 5 102200 99
2005-11-24 06:20:10 51°13.556 2°56.143 -999 299 5 102200 99
2005-11-24 06:20:15 51°13.557 2°56.141 -999 302 5 102200 99
2005-11-24 06:20:20 51°13.558 2°56.138 -999 306 5 102200 99
2005-11-24 06:20:25 51°13.559 2°56.136 -999 309 5 102200 99
2005-11-24 06:20:30 51°13.56 2°56.134 -999 303 5 102200 99
2005-11-24 06:20:35 51°13.56 2°56.132 -999 317 5 102200 99
2005-11-24 06:20:40 51°13.561 2°56.13 -999 325 5 102200 99
2005-11-24 06:20:45 51°13.562 2°56.129 -999 41 5 102200 99
2005-11-24 06:20:50 51°13.563 2°56.127 -999 306 5 102200 99
2005-11-24 06:20:55 51°13.563 2°56.125 -999 299 5 102200 99
2005-11-24 06:21:00 51°13.564 2°56.123 -999 308 5 102200 99
2005-11-24 06:21:05 51°13.565 2°56.12 -999 322 5 102200 99
2005-11-24 06:21:10 51°13.566 2°56.118 -999 307 5 102200 99
2005-11-24 06:21:15 51°13.567 2°56.115 -999 307 5 102200 99
2005-11-24 06:21:20 51°13.567 2°56.113 -999 44 5 102200 99
2005-11-24 06:21:25 51°13.568 2°56.111 -999 315 5 102200 99
2005-11-24 06:21:30 51°13.569 2°56.108 -999 277 5 102200 99
2005-11-24 06:21:35 51°13.57 2°56.106 -999 300 5 102200 99
2005-11-24 06:21:40 51°13.57 2°56.104 -999 237 5 102200 99
2005-11-24 06:21:45 51°13.571 2°56.102 -999 298 5 102200 99
2005-11-24 06:21:50 51°13.572 2°56.1 -999 287 5 102200 99
2005-11-24 06:21:55 51°13.573 2°56.097 -999 299 5 102200 99
2005-11-24 06:22:00 51°13.574 2°56.094 -999 303 5 102200 99
2005-11-24 06:22:05 51°13.575 2°56.091 -999 43 5 102200 99
2005-11-24 06:22:10 51°13.577 2°56.088 -999 304 5 102200 99
2005-11-24 06:22:15 51°13.578 2°56.085 -999 304 5 102200 99
2005-11-24 06:22:20 51°13.579 2°56.082 -999 306 5 102200 99
2005-11-24 06:22:25 51°13.58 2°56.079 -999 297 5 102200 99
2005-11-24 06:22:30 51°13.581 2°56.076 -999 276 5 102200 99
2005-11-24 06:22:35 51°13.583 2°56.073 -999 276 5 102200 99
2005-11-24 06:22:40 51°13.584 2°56.07 -999 300 5 102200 99
2005-11-24 06:22:45 51°13.585 2°56.067 -999 313 5 102200 99
2005-11-24 06:22:50 51°13.586 2°56.065 -999 283 5 102200 99
2005-11-24 06:22:55 51°13.587 2°56.063 -999 298 5 102200 99
2005-11-24 06:23:00 51°13.589 2°56.06 -999 277 5 102200 99
2005-11-24 06:23:05 51°13.59 2°56.058 -999 266 5 102190 99
2005-11-24 06:23:10 51°13.591 2°56.055 -999 266 5 102190 99
2005-11-24 06:23:15 51°13.592 2°56.053 -999 268 5 102190 99
2005-11-24 06:23:20 51°13.593 2°56.051 -999 271 5 102190 99
2005-11-24 06:23:25 51°13.594 2°56.048 -999 289 5 102190 99
2005-11-24 06:23:30 51°13.595 2°56.046 -999 306 5 102190 99
2005-11-24 06:23:35 51°13.596 2°56.044 -999 41 5 102190 99
2005-11-24 06:23:40 51°13.597 2°56.041 -999 324 5 102190 99
2005-11-24 06:23:45 51°13.599 2°56.039 -999 318 5 102190 99
2005-11-24 06:23:50 51°13.6 2°56.037 -999 301 5 102190 99
2005-11-24 06:23:55 51°13.601 2°56.035 -999 275 5 102190 99
2005-11-24 06:24:00 51°13.601 2°56.034 -999 281 5 102190 99
2005-11-24 06:24:05 51°13.602 2°56.033 -999 278 5 102190 99
2005-11-24 06:24:10 51°13.603 2°56.032 -999 252 5 102190 99
2005-11-24 06:24:15 51°13.603 2°56.032 -999 254 5 102190 99
2005-11-24 06:24:20 51°13.603 2°56.032 -999 272 5 102190 99
2005-11-24 06:24:25 51°13.604 2°56.031 -999 268 5 102190 99
2005-11-24 06:24:30 51°13.604 2°56.03 -999 270 5 102190 99
2005-11-24 06:24:35 51°13.605 2°56.029 -999 272 5 102190 99
2005-11-24 06:24:40 51°13.606 2°56.028 -999 291 5 102190 99
2005-11-24 06:24:45 51°13.606 2°56.027 -999 277 5 102190 99
2005-11-24 06:24:50 51°13.607 2°56.026 -999 291 5 102190 99
2005-11-24 06:24:55 51°13.608 2°56.025 -999 285 5 102190 99
2005-11-24 06:25:00 51°13.608 2°56.024 -999 288 5 102190 99
2005-11-24 06:25:05 51°13.609 2°56.023 -999 258 5 102190 99
2005-11-24 06:25:10 51°13.61 2°56.022 -999 262 5 102190 99
2005-11-24 06:25:15 51°13.611 2°56.02 -999 264 5 102190 99
2005-11-24 06:25:20 51°13.612 2°56.019 -999 281 5 102190 99
2005-11-24 06:25:25 51°13.613 2°56.017 -999 274 5 102180 99
2005-11-24 06:25:30 51°13.614 2°56.015 -999 271 5 102180 99
2005-11-24 06:25:35 51°13.615 2°56.013 -999 267 5 102180 99
2005-11-24 06:25:40 51°13.617 2°56.011 -999 275 5 102180 99
2005-11-24 06:25:45 51°13.618 2°56.008 -999 278 5 102180 99
2005-11-24 06:25:50 51°13.619 2°56.006 -999 284 5 102180 99
2005-11-24 06:25:55 51°13.621 2°56.003 -999 280 5 102180 99
2005-11-24 06:26:00 51°13.622 2°56 -999 304 5 102180 99
2005-11-24 06:26:05 51°13.624 2°55.997 -999 317 5 102180 99
2005-11-24 06:26:10 51°13.625 2°55.994 -999 317 5 102180 99
2005-11-24 06:26:15 51°13.627 2°55.991 -999 315 5 102180 99
2005-11-24 06:26:20 51°13.628 2°55.988 -999 314 5 102180 99
2005-11-24 06:26:25 51°13.63 2°55.985 -999 307 5 102180 99
2005-11-24 06:26:30 51°13.631 2°55.981 -999 313 5 102180 99
2005-11-24 06:26:35 51°13.633 2°55.977 -999 322 5 102180 99
2005-11-24 06:26:40 51°13.635 2°55.973 -999 319 5 102180 99
2005-11-24 06:26:45 51°13.636 2°55.969 -999 311 5 102180 99
2005-11-24 06:26:50 51°13.638 2°55.964 -999 307 5 102180 99
2005-11-24 06:26:55 51°13.64 2°55.959 -999 297 5 102180 99
2005-11-24 06:27:00 51°13.642 2°55.953 -999 310 5 102180 99
2005-11-24 06:27:05 51°13.644 2°55.947 -999 315 5 102180 99
2005-11-24 06:27:10 51°13.645 2°55.942 -999 308 5 102180 99
2005-11-24 06:27:15 51°13.647 2°55.935 -999 308 5 102180 99
2005-11-24 06:27:20 51°13.65 2°55.928 -999 334 5 102180 99
2005-11-24 06:27:25 51°13.652 2°55.921 -999 338 5 102180 99
2005-11-24 06:27:30 51°13.655 2°55.913 -999 325 5 102180 99
2005-11-24 06:27:35 51°13.658 2°55.905 -999 325 5 102180 99
2005-11-24 06:27:40 51°13.662 2°55.896 -999 330 5 102180 99
2005-11-24 06:27:45 51°13.665 2°55.887 -999 322 5 102180 99
2005-11-24 06:27:50 51°13.669 2°55.877 -999 326 5 102180 99
2005-11-24 06:27:55 51°13.673 2°55.867 -999 313 5 102180 99
2005-11-24 06:28:00 51°13.677 2°55.857 -999 314 5 102180 99
2005-11-24 06:28:05 51°13.681 2°55.847 -999 315 5 102180 99
2005-11-24 06:28:10 51°13.685 2°55.837 -999 319 5 102180 99
2005-11-24 06:28:15 51°13.69 2°55.827 -999 315 5 102180 99
2005-11-24 06:28:20 51°13.695 2°55.816 -999 315 5 102180 99
2005-11-24 06:28:25 51°13.7 2°55.806 -999 318 5 102180 99
2005-11-24 06:28:30 51°13.705 2°55.796 -999 316 5 102180 99
2005-11-24 06:28:35 51°13.71 2°55.785 -999 329 5 102180 99
2005-11-24 06:28:40 51°13.716 2°55.775 -999 335 5 102180 99
2005-11-24 06:28:45 51°13.721 2°55.765 -999 330 5 102180 99
2005-11-24 06:28:50 51°13.727 2°55.756 -999 324 5 102180 99
2005-11-24 06:28:55 51°13.733 2°55.746 -999 316 5.1 102180 99
2005-11-24 06:29:00 51°13.739 2°55.738 -999 307 5.1 102180 99
2005-11-24 06:29:05 51°13.745 2°55.729 -999 321 5 102180 99
2005-11-24 06:29:10 51°13.751 2°55.721 -999 322 5 102180 99
2005-11-24 06:29:15 51°13.757 2°55.712 -999 325 5 102180 99
2005-11-24 06:29:20 51°13.763 2°55.704 -999 336 5 102180 99
2005-11-24 06:29:25 51°13.769 2°55.697 -999 312 5 102180 99
2005-11-24 06:29:30 51°13.775 2°55.689 -999 42 5 102180 99
2005-11-24 06:29:35 51°13.782 2°55.682 -999 309 5.1 102180 99
2005-11-24 06:29:40 51°13.788 2°55.674 -999 300 5.1 102180 99
2005-11-24 06:29:45 51°13.794 2°55.665 -999 337 5.1 102180 99
2005-11-24 06:29:50 51°13.801 2°55.658 -999 353 5.1 102180 99
2005-11-24 06:29:55 51°13.808 2°55.65 -999 19 5.1 102180 99
2005-11-24 06:30:00 51°13.815 2°55.642 -999 346 5.1 102180 99
2005-11-24 06:30:05 51°13.822 2°55.635 -999 350 5.1 102180 99
2005-11-24 06:30:10 51°13.829 2°55.628 -999 321 5.1 102180 99
2005-11-24 06:30:15 51°13.837 2°55.621 -999 322 5.1 102180 99
2005-11-24 06:30:20 51°13.844 2°55.614 -999 300 5.1 102180 99
2005-11-24 06:30:25 51°13.852 2°55.607 -999 294 5.1 102180 99
2005-11-24 06:30:30 51°13.86 2°55.602 -999 268 5.1 102180 99
2005-11-24 06:30:35 51°13.868 2°55.597 -999 292 5.1 102180 99
2005-11-24 06:30:40 51°13.876 2°55.592 -999 297 5.1 102180 99
2005-11-24 06:30:45 51°13.885 2°55.586 -999 309 5.1 102180 99
2005-11-24 06:30:50 51°13.893 2°55.581 -999 316 5.1 102180 99
2005-11-24 06:30:55 51°13.901 2°55.575 -999 315 5.1 102180 99
2005-11-24 06:31:00 51°13.91 2°55.57 -999 302 5.1 102180 99
2005-11-24 06:31:05 51°13.918 2°55.564 -999 302 5.1 102180 99
2005-11-24 06:31:10 51°13.927 2°55.558 -999 293 5.1 102180 99
2005-11-24 06:31:16 51°13.937 2°55.551 -999 293 5.1 102180 99
2005-11-24 06:31:20 51°13.944 2°55.547 -999 304 5.1 102180 99
2005-11-24 06:31:25 51°13.953 2°55.541 -999 329 5.1 102180 99
2005-11-24 06:31:30 51°13.962 2°55.536 -999 326 5.1 102180 99
2005-11-24 06:31:35 51°13.971 2°55.53 -999 318 5.2 102180 99
2005-11-24 06:31:40 51°13.98 2°55.524 -999 321 5.2 102180 99
2005-11-24 06:31:45 51°13.989 2°55.518 -999 38 5.2 102180 99
2005-11-24 06:31:50 51°13.998 2°55.512 -999 322 5.2 102180 99
2005-11-24 06:31:56 51°14.008 2°55.506 -999 311 5.1 102180 99
2005-11-24 06:32:00 51°14.016 2°55.501 -999 317 5.1 102180 99
2005-11-24 06:32:05 51°14.025 2°55.495 -999 321 5.2 102180 99
2005-11-24 06:32:10 51°14.035 2°55.489 -999 320 5.2 102180 99
2005-11-24 06:32:15 51°14.044 2°55.483 -999 325 5.2 102180 99
2005-11-24 06:32:20 51°14.054 2°55.476 -999 323 5.2 102180 99
2005-11-24 06:32:25 51°14.064 2°55.469 -999 338 5.2 102180 99
2005-11-24 06:32:30 51°14.074 2°55.463 -999 33 5.2 102180 99
2005-11-24 06:32:35 51°14.084 2°55.457 -999 321 5.1 102180 99
2005-11-24 06:32:40 51°14.094 2°55.45 -999 319 5.1 102180 99
2005-11-24 06:32:45 51°14.105 2°55.443 -999 318 5.2 102180 99
2005-11-24 06:32:50 51°14.115 2°55.436 -999 304 5.2 102180 99
2005-11-24 06:32:56 51°14.127 2°55.426 -999 310 5.2 102180 99
2005-11-24 06:33:00 51°14.135 2°55.42 -999 334 5.2 102180 99
2005-11-24 06:33:05 51°14.145 2°55.412 -999 344 5.2 102180 99
2005-11-24 06:33:10 51°14.155 2°55.404 -999 333 5.2 102180 99
2005-11-24 06:33:15 51°14.164 2°55.395 -999 335 5.2 102180 99
2005-11-24 06:33:20 51°14.174 2°55.385 -999 330 5.2 102180 99
2005-11-24 06:33:24 51°14.181 2°55.377 -999 341 5.2 102180 99
2005-11-24 06:33:30 51°14.193 2°55.365 -999 319 5.2 102180 99
2005-11-24 06:33:35 51°14.202 2°55.354 -999 335 5.2 102180 99
2005-11-24 06:33:40 51°14.21 2°55.343 -999 328 5.2 102180 99
2005-11-24 06:33:45 51°14.219 2°55.332 -999 226 5.2 102180 99
2005-11-24 06:33:50 51°14.227 2°55.321 -999 319 5.2 102180 99
2005-11-24 06:33:55 51°14.236 2°55.309 -999 318 5.2 102180 99
2005-11-24 06:34:00 51°14.245 2°55.296 -999 333 5.2 102180 99
2005-11-24 06:34:05 51°14.254 2°55.282 -999 332 5.2 102180 99
2005-11-24 06:34:10 51°14.263 2°55.269 -999 334 5.2 102180 99
2005-11-24 06:34:15 51°14.271 2°55.254 -999 338 5.2 102180 99
2005-11-24 06:34:20 51°14.28 2°55.239 -999 334 5.2 102180 99
2005-11-24 06:34:25 51°14.289 2°55.223 -999 321 5.2 102180 99
2005-11-24 06:34:30 51°14.297 2°55.206 -999 321 5.2 102180 99
2005-11-24 06:34:35 51°14.305 2°55.19 -999 326 5.2 102180 99
2005-11-24 06:34:40 51°14.312 2°55.172 -999 330 5.2 102180 99
2005-11-24 06:34:45 51°14.32 2°55.155 -999 332 5.3 102180 99
2005-11-24 06:34:50 51°14.327 2°55.137 -999 324 5.3 102180 99
2005-11-24 06:34:55 51°14.335 2°55.119 -999 353 5.3 102180 99
2005-11-24 06:35:00 51°14.342 2°55.101 -999 333 5.3 102180 99
2005-11-24 06:35:05 51°14.349 2°55.084 -999 327 5.3 102170 99
2005-11-24 06:35:10 51°14.357 2°55.066 -999 326 5.3 102170 99
2005-11-24 06:35:16 51°14.367 2°55.044 -999 327 5.4 102180 99
2005-11-24 06:35:20 51°14.373 2°55.03 -999 322 5.4 102180 99
2005-11-24 06:35:25 51°14.382 2°55.012 -999 317 5.4 102170 99
2005-11-24 06:35:30 51°14.391 2°54.994 -999 321 5.4 102170 99
2005-11-24 06:35:35 51°14.401 2°54.976 -999 321 5.4 102170 99
2005-11-24 06:35:40 51°14.411 2°54.958 -999 323 5.4 102170 99
2005-11-24 06:35:45 51°14.422 2°54.942 -999 324 5.4 102170 99
2005-11-24 06:35:50 51°14.433 2°54.926 -999 322 5.4 102170 99
2005-11-24 06:35:55 51°14.445 2°54.909 -999 325 5.4 102170 99
2005-11-24 06:36:00 51°14.456 2°54.893 -999 327 5.4 102170 99
2005-11-24 06:36:04 51°14.465 2°54.879 -999 324 5.4 102140 99
2005-11-24 06:36:10 51°14.478 2°54.857 -999 329 5.4 102140 99
2005-11-24 06:36:15 51°14.489 2°54.838 -999 329 5.4 102150 99
2005-11-24 06:36:20 51°14.499 2°54.818 -999 336 5.4 102150 99
2005-11-24 06:36:25 51°14.509 2°54.797 -999 332 5.4 102140 99
2005-11-24 06:36:30 51°14.519 2°54.776 -999 332 5.4 102140 99
2005-11-24 06:36:35 51°14.529 2°54.754 -999 332 5.5 102140 99
2005-11-24 06:36:40 51°14.538 2°54.732 -999 334 5.5 102140 99
2005-11-24 06:36:45 51°14.548 2°54.709 -999 332 5.5 102130 99
2005-11-24 06:36:50 51°14.557 2°54.687 -999 333 5.5 102130 99
2005-11-24 06:36:55 51°14.567 2°54.665 -999 331 5.5 102120 99
2005-11-24 06:37:00 51°14.576 2°54.642 -999 332 5.5 102120 99
2005-11-24 06:37:05 51°14.586 2°54.619 -999 330 5.5 102120 99
2005-11-24 06:37:10 51°14.596 2°54.597 -999 333 5.5 102120 99
2005-11-24 06:37:15 51°14.606 2°54.574 -999 332 5.5 102120 99
2005-11-24 06:37:20 51°14.615 2°54.551 -999 328 5.5 102120 99
2005-11-24 06:37:25 51°14.625 2°54.528 -999 329 5.5 102110 99
2005-11-24 06:37:30 51°14.634 2°54.505 -999 329 5.5 102110 99
2005-11-24 06:37:35 51°14.642 2°54.481 -999 331 5.6 102110 99
2005-11-24 06:37:40 51°14.651 2°54.458 -999 330 5.6 102110 99
2005-11-24 06:37:45 51°14.66 2°54.434 -999 335 5.6 102110 99
2005-11-24 06:37:50 51°14.67 2°54.411 -999 330 5.6 102110 99
2005-11-24 06:37:55 51°14.679 2°54.387 -999 331 5.6 102110 99
2005-11-24 06:38:00 51°14.688 2°54.364 -999 332 5.6 102110 99
2005-11-24 06:38:05 51°14.697 2°54.341 -999 330 5.6 102110 99
2005-11-24 06:38:10 51°14.706 2°54.317 -999 331 5.6 102110 99
2005-11-24 06:38:15 51°14.715 2°54.293 -999 331 5.7 102110 99
2005-11-24 06:38:20 51°14.723 2°54.269 -999 334 5.7 102110 99
2005-11-24 06:38:25 51°14.732 2°54.246 -999 332 5.7 102110 99
2005-11-24 06:38:30 51°14.74 2°54.222 -999 330 5.7 102110 99
2005-11-24 06:38:35 51°14.748 2°54.198 -999 329 5.6 102100 99
2005-11-24 06:38:40 51°14.757 2°54.174 -999 332 5.6 102100 99
2005-11-24 06:38:45 51°14.765 2°54.15 -999 330 5.7 102100 99
2005-11-24 06:38:50 51°14.774 2°54.126 -999 327 5.7 102100 99
2005-11-24 06:38:55 51°14.782 2°54.102 -999 329 5.7 102100 99
2005-11-24 06:39:00 51°14.791 2°54.079 -999 331 5.7 102100 99
2005-11-24 06:39:04 51°14.798 2°54.059 -999 327 5.7 102100 99
2005-11-24 06:39:10 51°14.808 2°54.031 -999 329 5.7 102100 99
2005-11-24 06:39:15 51°14.816 2°54.006 -999 331 5.7 102100 99
2005-11-24 06:39:20 51°14.824 2°53.982 -999 328 5.7 102100 99
2005-11-24 06:39:25 51°14.832 2°53.958 -999 326 5.7 102090 99
2005-11-24 06:39:30 51°14.84 2°53.933 -999 328 5.7 102090 99
2005-11-24 06:39:35 51°14.849 2°53.909 -999 328 5.7 102090 99
2005-11-24 06:39:40 51°14.857 2°53.885 -999 331 5.7 102090 99
2005-11-24 06:39:45 51°14.866 2°53.86 -999 332 5.7 102090 99
2005-11-24 06:39:50 51°14.874 2°53.836 -999 328 5.7 102090 99
2005-11-24 06:39:55 51°14.883 2°53.811 -999 328 5.7 102090 99
2005-11-24 06:40:00 51°14.891 2°53.787 -999 330 5.7 102090 99
2005-11-24 06:40:05 51°14.9 2°53.763 -999 329 5.8 102090 99
2005-11-24 06:40:10 51°14.908 2°53.738 -999 329 5.8 102090 99
2005-11-24 06:40:15 51°14.917 2°53.714 -999 332 5.8 102090 99
2005-11-24 06:40:20 51°14.925 2°53.69 -999 328 5.8 102090 99
2005-11-24 06:40:25 51°14.934 2°53.665 -999 327 5.8 102080 99
2005-11-24 06:40:30 51°14.943 2°53.641 -999 327 5.8 102080 99
2005-11-24 06:40:35 51°14.951 2°53.617 -999 326 5.8 102090 99
2005-11-24 06:40:40 51°14.96 2°53.593 -999 327 5.8 102090 99
2005-11-24 06:40:45 51°14.967 2°53.568 -999 328 5.8 102080 99
2005-11-24 06:40:50 51°14.975 2°53.543 -999 329 5.8 102080 99
2005-11-24 06:40:55 51°14.983 2°53.518 -999 326 5.8 102090 99
2005-11-24 06:41:00 51°14.99 2°53.493 -999 326 5.8 102090 99
2005-11-24 06:41:05 51°14.998 2°53.468 -999 326 5.9 102080 99
2005-11-24 06:41:10 51°15.005 2°53.443 -999 325 5.9 102080 99
2005-11-24 06:41:15 51°15.013 2°53.418 -999 327 5.9 102080 99
2005-11-24 06:41:20 51°15.02 2°53.393 -999 327 5.9 102080 99
2005-11-24 06:41:25 51°15.028 2°53.368 -999 327 5.9 102080 99
2005-11-24 06:41:30 51°15.035 2°53.343 -999 326 5.9 102080 99
2005-11-24 06:41:35 51°15.043 2°53.318 -999 326 5.9 102080 99
2005-11-24 06:41:40 51°15.051 2°53.292 -999 324 5.9 102080 99
2005-11-24 06:41:45 51°15.058 2°53.267 -999 325 5.9 102120 99
2005-11-24 06:41:50 51°15.065 2°53.242 -999 326 5.9 102120 99
2005-11-24 06:41:55 51°15.073 2°53.217 -999 325 5.9 102080 99
2005-11-24 06:42:00 51°15.08 2°53.193 -999 330 5.9 102080 99
2005-11-24 06:42:05 51°15.087 2°53.167 -999 326 5.9 102080 99
2005-11-24 06:42:10 51°15.095 2°53.143 -999 326 5.9 102080 99
2005-11-24 06:42:16 51°15.104 2°53.113 -999 324 5.9 102080 99
2005-11-24 06:42:20 51°15.11 2°53.093 -999 325 5.9 102080 99
2005-11-24 06:42:25 51°15.117 2°53.068 -999 326 6 102080 99
2005-11-24 06:42:30 51°15.125 2°53.043 -999 326 6 102080 99
2005-11-24 06:42:35 51°15.133 2°53.019 -999 326 6 102080 99
2005-11-24 06:42:40 51°15.14 2°52.994 -999 330 6 102080 99
2005-11-24 06:42:45 51°15.148 2°52.969 -999 331 6 102080 99
2005-11-24 06:42:50 51°15.155 2°52.944 -999 326 6 102080 99
2005-11-24 06:42:55 51°15.162 2°52.919 -999 326 6.1 102080 99
2005-11-24 06:43:00 51°15.169 2°52.894 -999 325 6.1 102080 99
2005-11-24 06:43:04 51°15.175 2°52.874 -999 331 6.1 102080 99
2005-11-24 06:43:10 51°15.182 2°52.843 -999 325 6.1 102080 99
2005-11-24 06:43:15 51°15.189 2°52.818 -999 327 6.1 102080 99
2005-11-24 06:43:20 51°15.195 2°52.792 -999 331 6.1 102080 99
2005-11-24 06:43:25 51°15.202 2°52.767 -999 327 6.2 102070 99
2005-11-24 06:43:30 51°15.209 2°52.741 -999 325 6.2 102070 99
2005-11-24 06:43:35 51°15.215 2°52.716 -999 326 6.2 102070 99
2005-11-24 06:43:40 51°15.222 2°52.691 -999 327 6.2 102070 99
2005-11-24 06:43:45 51°15.228 2°52.665 -999 326 6.3 102080 99
2005-11-24 06:43:50 51°15.235 2°52.64 -999 325 6.3 102080 99
2005-11-24 06:43:55 51°15.242 2°52.614 -999 326 6.3 102070 99
2005-11-24 06:44:00 51°15.248 2°52.589 -999 325 6.3 102070 99
2005-11-24 06:44:05 51°15.255 2°52.563 -999 328 6.3 102070 99
2005-11-24 06:44:10 51°15.261 2°52.538 -999 326 6.3 102070 99
2005-11-24 06:44:15 51°15.268 2°52.512 -999 324 6.3 102070 99
2005-11-24 06:44:20 51°15.274 2°52.487 -999 328 6.3 102070 99
2005-11-24 06:44:25 51°15.281 2°52.462 -999 330 6.3 102060 99
2005-11-24 06:44:30 51°15.288 2°52.436 -999 328 6.3 102060 99
2005-11-24 06:44:35 51°15.294 2°52.411 -999 325 6.4 102060 99
2005-11-24 06:44:40 51°15.301 2°52.386 -999 330 6.4 102060 99
2005-11-24 06:44:44 51°15.306 2°52.365 -999 328 6.4 102060 99
2005-11-24 06:44:50 51°15.314 2°52.335 -999 326 6.4 102060 99
2005-11-24 06:44:55 51°15.321 2°52.31 -999 326 6.4 102060 99
2005-11-24 06:45:00 51°15.327 2°52.284 -999 330 6.4 102060 99
2005-11-24 06:45:05 51°15.334 2°52.259 -999 327 6.4 102060 99
2005-11-24 06:45:10 51°15.34 2°52.233 -999 328 6.4 102060 99
2005-11-24 06:45:15 51°15.347 2°52.208 -999 325 6.4 102060 99
2005-11-24 06:45:20 51°15.354 2°52.183 -999 326 6.4 102060 99
2005-11-24 06:45:25 51°15.36 2°52.157 -999 327 6.5 102060 99
2005-11-24 06:45:30 51°15.367 2°52.132 -999 327 6.5 102060 99
2005-11-24 06:45:35 51°15.374 2°52.107 -999 329 6.5 102060 99
2005-11-24 06:45:40 51°15.381 2°52.082 -999 324 6.5 102060 99
2005-11-24 06:45:45 51°15.388 2°52.056 -999 326 6.5 102060 99
2005-11-24 06:45:50 51°15.395 2°52.031 -999 327 6.5 102060 99
2005-11-24 06:45:55 51°15.401 2°52.006 -999 328 6.6 102050 100
2005-11-24 06:46:00 51°15.408 2°51.98 -999 329 6.6 102050 100
2005-11-24 06:46:05 51°15.415 2°51.955 -999 329 6.5 102050 100
2005-11-24 06:46:10 51°15.422 2°51.93 -999 328 6.5 102050 100
2005-11-24 06:46:15 51°15.429 2°51.905 -999 326 6.6 102050 100
2005-11-24 06:46:20 51°15.436 2°51.879 -999 327 6.6 102050 100
2005-11-24 06:46:25 51°15.442 2°51.854 -999 328 6.6 102050 100
2005-11-24 06:46:30 51°15.449 2°51.829 -999 328 6.6 102050 100
2005-11-24 06:46:35 51°15.456 2°51.803 -999 329 6.6 102050 100
2005-11-24 06:46:40 51°15.463 2°51.778 -999 331 6.6 102050 100
2005-11-24 06:46:45 51°15.47 2°51.753 -999 329 6.6 102050 100
2005-11-24 06:46:50 51°15.476 2°51.728 -999 329 6.6 102050 100
2005-11-24 06:46:55 51°15.482 2°51.702 -999 327 6.6 102050 100
2005-11-24 06:47:00 51°15.488 2°51.676 -999 330 6.6 102050 100
2005-11-24 06:47:05 51°15.493 2°51.65 -999 328 6.6 102050 100
2005-11-24 06:47:10 51°15.498 2°51.624 -999 331 6.6 102050 100
2005-11-24 06:47:15 51°15.503 2°51.598 -999 330 6.6 102050 100
2005-11-24 06:47:20 51°15.507 2°51.572 -999 331 6.6 102050 100
2005-11-24 06:47:25 51°15.512 2°51.546 -999 333 6.7 102050 100
2005-11-24 06:47:30 51°15.516 2°51.519 -999 330 6.7 102050 100
2005-11-24 06:47:35 51°15.521 2°51.493 -999 330 6.7 102050 100
2005-11-24 06:47:40 51°15.525 2°51.467 -999 335 6.7 102050 100
2005-11-24 06:47:45 51°15.53 2°51.441 -999 333 6.7 102050 100
2005-11-24 06:47:50 51°15.535 2°51.415 -999 331 6.7 102050 100
2005-11-24 06:47:55 51°15.54 2°51.388 -999 338 6.7 102050 100
2005-11-24 06:48:00 51°15.544 2°51.362 -999 334 6.7 102050 100
2005-11-24 06:48:04 51°15.548 2°51.341 -999 339 6.7 102070 100
2005-11-24 06:48:10 51°15.554 2°51.31 -999 333 6.7 102070 100
2005-11-24 06:48:15 51°15.558 2°51.284 -999 336 6.7 102050 100
2005-11-24 06:48:20 51°15.563 2°51.258 -999 340 6.7 102050 100
2005-11-24 06:48:25 51°15.567 2°51.231 -999 338 6.8 102050 100
2005-11-24 06:48:30 51°15.571 2°51.205 -999 338 6.8 102050 100
2005-11-24 06:48:35 51°15.574 2°51.179 -999 335 6.8 102060 100
2005-11-24 06:48:40 51°15.578 2°51.152 -999 336 6.8 102060 100
2005-11-24 06:48:45 51°15.581 2°51.126 -999 337 6.8 102050 100
2005-11-24 06:48:50 51°15.583 2°51.099 -999 339 6.8 102050 100
2005-11-24 06:48:55 51°15.585 2°51.072 -999 334 6.8 102060 100
2005-11-24 06:49:00 51°15.587 2°51.045 -999 335 6.8 102060 100
2005-11-24 06:49:05 51°15.589 2°51.019 -999 334 6.8 102050 100
2005-11-24 06:49:10 51°15.59 2°50.992 -999 336 6.8 102050 100
2005-11-24 06:49:15 51°15.592 2°50.965 -999 334 6.9 102050 100
2005-11-24 06:49:20 51°15.594 2°50.939 -999 339 6.9 102050 100
2005-11-24 06:49:25 51°15.594 2°50.912 -999 339 6.9 102050 100
2005-11-24 06:49:30 51°15.595 2°50.885 -999 342 6.9 102050 100
2005-11-24 06:49:35 51°15.596 2°50.858 -999 341 6.9 102050 100
2005-11-24 06:49:40 51°15.596 2°50.831 -999 339 6.9 102050 100
2005-11-24 06:49:45 51°15.596 2°50.805 -999 340 6.9 102050 100
2005-11-24 06:49:50 51°15.596 2°50.778 -999 342 6.9 102050 100
2005-11-24 06:49:55 51°15.597 2°50.751 -999 339 6.9 102050 100
2005-11-24 06:50:00 51°15.597 2°50.724 -999 343 6.9 102050 100
2005-11-24 06:50:05 51°15.597 2°50.697 -999 336 6.9 102050 100
2005-11-24 06:50:10 51°15.598 2°50.671 -999 339 6.9 102050 100
2005-11-24 06:50:15 51°15.598 2°50.644 -999 337 7 102050 100
2005-11-24 06:50:20 51°15.598 2°50.617 -999 342 7 102050 100
2005-11-24 06:50:25 51°15.598 2°50.59 -999 343 6.9 102050 100
2005-11-24 06:50:30 51°15.598 2°50.563 -999 345 6.9 102050 100
2005-11-24 06:50:35 51°15.597 2°50.537 -999 346 7 102050 100
2005-11-24 06:50:40 51°15.597 2°50.51 -999 349 7 102050 100
2005-11-24 06:50:45 51°15.595 2°50.483 -999 344 7 102050 100
2005-11-24 06:50:50 51°15.594 2°50.457 -999 343 7 102050 100
2005-11-24 06:50:55 51°15.592 2°50.43 -999 347 7 102060 100
2005-11-24 06:51:00 51°15.591 2°50.403 -999 345 7 102060 100
2005-11-24 06:51:04 51°15.59 2°50.382 -999 349 7 102050 100
2005-11-24 06:51:10 51°15.588 2°50.35 -999 349 7 102050 100
2005-11-24 06:51:16 51°15.587 2°50.318 -999 347 7 102050 100
2005-11-24 06:51:20 51°15.586 2°50.297 -999 353 7 102050 100
2005-11-24 06:51:25 51°15.585 2°50.27 -999 352 7 102050 100
2005-11-24 06:51:30 51°15.584 2°50.243 -999 356 7 102050 100
2005-11-24 06:51:35 51°15.582 2°50.216 -999 357 7 102050 100
2005-11-24 06:51:40 51°15.581 2°50.19 -999 357 7 102050 100
2005-11-24 06:51:45 51°15.58 2°50.163 -999 357 7.1 102050 100
2005-11-24 06:51:50 51°15.579 2°50.136 -999 355 7.1 102050 100
2005-11-24 06:51:55 51°15.578 2°50.109 -999 355 7.1 102050 100
2005-11-24 06:52:00 51°15.577 2°50.083 -999 354 7.1 102050 100
2005-11-24 06:52:05 51°15.576 2°50.056 -999 352 7.1 102050 100
2005-11-24 06:52:10 51°15.574 2°50.03 -999 351 7.1 102050 100
2005-11-24 06:52:15 51°15.574 2°50.003 -999 352 7.1 102050 100
2005-11-24 06:52:20 51°15.573 2°49.976 -999 353 7.1 102050 100
2005-11-24 06:52:25 51°15.572 2°49.95 -999 350 7.2 102060 100
2005-11-24 06:52:30 51°15.571 2°49.923 -999 349 7.2 102060 100
2005-11-24 06:52:35 51°15.57 2°49.896 -999 353 7.2 102040 100
2005-11-24 06:52:40 51°15.569 2°49.87 -999 349 7.2 102040 100
2005-11-24 06:52:45 51°15.567 2°49.843 -999 350 7.2 102040 100
2005-11-24 06:52:50 51°15.567 2°49.817 -999 355 7.2 102040 100
2005-11-24 06:52:55 51°15.565 2°49.79 -999 355 7.2 102050 100
2005-11-24 06:53:00 51°15.564 2°49.763 -999 -999 7.2 102050 100
2005-11-24 06:53:05 51°15.563 2°49.737 -999 357 7.3 102040 100
2005-11-24 06:53:10 51°15.562 2°49.71 -999 357 7.3 102040 100
2005-11-24 06:53:16 51°15.561 2°49.679 -999 357 7.3 102050 100
2005-11-24 06:53:20 51°15.56 2°49.657 -999 355 7.3 102050 100
2005-11-24 06:53:25 51°15.559 2°49.631 -999 358 7.4 102050 100
2005-11-24 06:53:30 51°15.558 2°49.604 -999 355 7.4 102050 100
2005-11-24 06:53:35 51°15.557 2°49.578 -999 360 7.4 102080 100
2005-11-24 06:53:40 51°15.556 2°49.551 -999 3 7.4 102080 100
2005-11-24 06:53:45 51°15.555 2°49.525 -999 356 7.4 102050 100
2005-11-24 06:53:50 51°15.554 2°49.498 -999 1 7.4 102050 100
2005-11-24 06:53:55 51°15.553 2°49.472 -999 5 7.4 102050 100
2005-11-24 06:54:00 51°15.552 2°49.445 -999 3 7.4 102050 100
2005-11-24 06:54:04 51°15.551 2°49.424 -999 1 7.4 102050 100
2005-11-24 06:54:10 51°15.55 2°49.392 -999 4 7.4 102050 100
2005-11-24 06:54:15 51°15.549 2°49.365 -999 -999 7.5 102050 100
2005-11-24 06:54:20 51°15.548 2°49.339 -999 1 7.5 102050 100
2005-11-24 06:54:25 51°15.547 2°49.312 -999 2 7.5 102050 100
2005-11-24 06:54:30 51°15.546 2°49.286 -999 5 7.5 102050 100
2005-11-24 06:54:35 51°15.545 2°49.259 -999 6 7.5 102050 100
2005-11-24 06:54:40 51°15.544 2°49.233 -999 6 7.5 102050 100
2005-11-24 06:54:45 51°15.543 2°49.206 -999 8 7.6 102050 100
2005-11-24 06:54:50 51°15.542 2°49.18 -999 3 7.6 102050 100
2005-11-24 06:54:55 51°15.541 2°49.153 -999 2 7.6 102080 100
2005-11-24 06:55:00 51°15.54 2°49.126 -999 3 7.6 102080 100
2005-11-24 06:55:05 51°15.539 2°49.1 -999 1 7.6 102050 100
2005-11-24 06:55:10 51°15.538 2°49.073 -999 8 7.6 102050 100
2005-11-24 06:55:15 51°15.537 2°49.046 -999 8 7.6 102050 100
2005-11-24 06:55:20 51°15.536 2°49.02 -999 9 7.6 102050 100
2005-11-24 06:55:25 51°15.536 2°48.993 -999 7 7.6 102050 100
2005-11-24 06:55:30 51°15.535 2°48.967 -999 7 7.6 102050 100
2005-11-24 06:55:35 51°15.534 2°48.94 -999 4 7.6 102050 99
2005-11-24 06:55:40 51°15.533 2°48.913 -999 1 7.6 102050 99
2005-11-24 06:55:44 51°15.532 2°48.892 -999 5 7.7 102040 99
2005-11-24 06:55:50 51°15.531 2°48.86 -999 5 7.7 102040 99
2005-11-24 06:55:55 51°15.53 2°48.834 -999 7 7.7 102050 99
2005-11-24 06:56:00 51°15.529 2°48.807 -999 6 7.7 102050 99
2005-11-24 06:56:04 51°15.528 2°48.786 -999 5 7.7 102050 99
2005-11-24 06:56:10 51°15.528 2°48.754 -999 2 7.7 102050 99
2005-11-24 06:56:15 51°15.527 2°48.727 -999 3 7.7 102050 99
2005-11-24 06:56:20 51°15.526 2°48.701 -999 3 7.7 102050 99
2005-11-24 06:56:25 51°15.525 2°48.674 -999 2 7.7 102050 99
2005-11-24 06:56:30 51°15.524 2°48.648 -999 1 7.7 102050 99
2005-11-24 06:56:35 51°15.523 2°48.621 -999 359 7.7 102040 99
2005-11-24 06:56:40 51°15.522 2°48.594 -999 359 7.7 102040 99
2005-11-24 06:56:44 51°15.522 2°48.573 -999 360 7.6 102040 99
2005-11-24 06:56:50 51°15.521 2°48.541 -999 -999 7.6 102040 99
2005-11-24 06:56:55 51°15.52 2°48.515 -999 360 7.6 102040 99
2005-11-24 06:57:00 51°15.519 2°48.488 -999 359 7.6 102040 99
2005-11-24 06:57:05 51°15.518 2°48.461 -999 -999 7.7 102040 99
2005-11-24 06:57:10 51°15.517 2°48.435 -999 2 7.7 102040 99
2005-11-24 06:57:15 51°15.516 2°48.408 -999 2 7.6 102040 99
2005-11-24 06:57:20 51°15.515 2°48.381 -999 1 7.6 102040 99
2005-11-24 06:57:25 51°15.514 2°48.355 -999 1 7.7 102040 99
2005-11-24 06:57:30 51°15.513 2°48.328 -999 1 7.7 102040 99
2005-11-24 06:57:35 51°15.512 2°48.301 -999 2 7.7 102030 99
2005-11-24 06:57:40 51°15.511 2°48.274 -999 2 7.7 102030 99
2005-11-24 06:57:44 51°15.51 2°48.253 -999 359 7.7 102030 99
2005-11-24 06:57:50 51°15.509 2°48.221 -999 354 7.7 102030 99
2005-11-24 06:57:55 51°15.508 2°48.194 -999 355 7.7 102030 99
2005-11-24 06:58:00 51°15.507 2°48.168 -999 357 7.7 102030 99
2005-11-24 06:58:05 51°15.506 2°48.141 -999 358 7.7 102030 99
2005-11-24 06:58:10 51°15.505 2°48.114 -999 358 7.7 102030 99
2005-11-24 06:58:15 51°15.504 2°48.087 -999 358 7.7 102030 99
2005-11-24 06:58:20 51°15.503 2°48.06 -999 1 7.7 102030 99
2005-11-24 06:58:25 51°15.502 2°48.033 -999 360 7.7 102030 99
2005-11-24 06:58:30 51°15.501 2°48.007 -999 1 7.7 102030 99
2005-11-24 06:58:35 51°15.501 2°47.98 -999 -999 7.7 102030 99
2005-11-24 06:58:40 51°15.5 2°47.953 -999 3 7.7 102030 99
2005-11-24 06:58:44 51°15.499 2°47.932 -999 1 7.7 102030 99
2005-11-24 06:58:50 51°15.498 2°47.9 -999 1 7.7 102030 99
2005-11-24 06:58:55 51°15.497 2°47.873 -999 356 7.7 102030 99
2005-11-24 06:59:00 51°15.496 2°47.846 -999 360 7.7 102030 99
2005-11-24 06:59:05 51°15.495 2°47.819 -999 359 7.7 102050 99
2005-11-24 06:59:10 51°15.494 2°47.793 -999 358 7.7 102050 99
2005-11-24 06:59:15 51°15.494 2°47.766 -999 358 7.7 102030 99
2005-11-24 06:59:20 51°15.493 2°47.739 -999 359 7.7 102030 99
2005-11-24 06:59:25 51°15.492 2°47.712 -999 356 7.7 102030 99
2005-11-24 06:59:30 51°15.491 2°47.686 -999 359 7.7 102030 99
2005-11-24 06:59:35 51°15.49 2°47.659 -999 359 7.6 102030 99
2005-11-24 06:59:40 51°15.49 2°47.632 -999 355 7.6 102030 99
2005-11-24 06:59:45 51°15.489 2°47.606 -999 354 7.6 102030 99
2005-11-24 06:59:50 51°15.488 2°47.579 -999 357 7.6 102030 99
2005-11-24 06:59:55 51°15.487 2°47.552 -999 357 7.6 102020 99
2005-11-24 07:00:00 51°15.486 2°47.526 -999 2 7.6 102020 99
2005-11-24 07:00:05 51°15.486 2°47.499 -999 2 7.6 102030 99
2005-11-24 07:00:10 51°15.485 2°47.472 -999 2 7.6 102030 99
2005-11-24 07:00:15 51°15.484 2°47.446 -999 4 7.6 102030 99
2005-11-24 07:00:20 51°15.483 2°47.419 -999 5 7.6 102030 99
2005-11-24 07:00:25 51°15.482 2°47.393 -999 2 7.6 102020 99
2005-11-24 07:00:30 51°15.481 2°47.366 -999 -999 7.6 102020 99
2005-11-24 07:00:35 51°15.48 2°47.34 -999 358 7.7 102030 99
2005-11-24 07:00:40 51°15.479 2°47.313 -999 358 7.7 102030 99
2005-11-24 07:00:44 51°15.479 2°47.292 -999 1 7.6 102030 99
2005-11-24 07:00:50 51°15.478 2°47.26 -999 359 7.6 102030 99
2005-11-24 07:00:55 51°15.477 2°47.234 -999 358 7.6 102070 99
2005-11-24 07:01:00 51°15.477 2°47.207 -999 -999 7.6 102070 99
2005-11-24 07:01:05 51°15.476 2°47.181 -999 358 7.6 102020 98
2005-11-24 07:01:10 51°15.475 2°47.154 -999 2 7.6 102020 98
2005-11-24 07:01:15 51°15.474 2°47.128 -999 353 7.7 102020 99
2005-11-24 07:01:20 51°15.473 2°47.101 -999 358 7.7 102020 99
2005-11-24 07:01:25 51°15.472 2°47.075 -999 358 7.7 102030 99
2005-11-24 07:01:30 51°15.471 2°47.049 -999 -999 7.7 102030 99
2005-11-24 07:01:35 51°15.469 2°47.022 -999 4 7.7 102020 99
2005-11-24 07:01:40 51°15.468 2°46.995 -999 2 7.7 102020 99
2005-11-24 07:01:44 51°15.468 2°46.974 -999 360 7.7 102020 99
2005-11-24 07:01:50 51°15.467 2°46.943 -999 1 7.7 102020 99
2005-11-24 07:01:55 51°15.466 2°46.916 -999 359 7.7 102020 99
2005-11-24 07:02:00 51°15.465 2°46.89 -999 1 7.7 102020 99
2005-11-24 07:02:05 51°15.465 2°46.864 -999 357 7.7 102020 99
2005-11-24 07:02:10 51°15.464 2°46.838 -999 356 7.7 102020 99
2005-11-24 07:02:15 51°15.463 2°46.811 -999 355 7.7 102020 99
2005-11-24 07:02:20 51°15.461 2°46.785 -999 359 7.7 102020 99
2005-11-24 07:02:25 51°15.46 2°46.759 -999 1 7.7 102020 98
2005-11-24 07:02:30 51°15.458 2°46.733 -999 2 7.7 102020 98
2005-11-24 07:02:35 51°15.456 2°46.707 -999 4 7.7 102020 98
2005-11-24 07:02:40 51°15.454 2°46.681 -999 -999 7.7 102020 98
2005-11-24 07:02:45 51°15.453 2°46.655 -999 359 7.7 102020 98
2005-11-24 07:02:50 51°15.451 2°46.629 -999 358 7.7 102020 98
2005-11-24 07:02:55 51°15.449 2°46.602 -999 357 7.7 102010 98
2005-11-24 07:03:00 51°15.447 2°46.577 -999 360 7.7 102010 98
2005-11-24 07:03:05 51°15.445 2°46.55 -999 359 7.7 102020 98
2005-11-24 07:03:10 51°15.444 2°46.524 -999 1 7.7 102020 98
2005-11-24 07:03:15 51°15.442 2°46.499 -999 360 7.7 102020 98
2005-11-24 07:03:20 51°15.441 2°46.472 -999 358 7.7 102020 98
2005-11-24 07:03:25 51°15.439 2°46.446 -999 358 7.7 102020 98
2005-11-24 07:03:30 51°15.437 2°46.42 -999 358 7.7 102020 98
2005-11-24 07:03:35 51°15.435 2°46.394 -999 -999 7.7 102020 98
2005-11-24 07:03:40 51°15.434 2°46.368 -999 4 7.7 102020 98
2005-11-24 07:03:45 51°15.432 2°46.342 -999 1 7.7 102020 98
2005-11-24 07:03:50 51°15.43 2°46.316 -999 -999 7.7 102020 98
2005-11-24 07:03:55 51°15.429 2°46.289 -999 359 7.7 102020 98
2005-11-24 07:04:00 51°15.427 2°46.263 -999 359 7.7 102020 98
2005-11-24 07:04:05 51°15.425 2°46.237 -999 358 7.7 102020 98
2005-11-24 07:04:10 51°15.423 2°46.211 -999 8 7.7 102020 98
2005-11-24 07:04:15 51°15.422 2°46.185 -999 4 7.6 102020 98
2005-11-24 07:04:20 51°15.42 2°46.159 -999 2 7.6 102020 98
2005-11-24 07:04:25 51°15.418 2°46.133 -999 8 7.6 102020 98
2005-11-24 07:04:30 51°15.416 2°46.107 -999 3 7.6 102020 98
2005-11-24 07:04:35 51°15.415 2°46.08 -999 5 7.6 102020 98
2005-11-24 07:04:40 51°15.413 2°46.054 -999 359 7.6 102020 98
2005-11-24 07:04:45 51°15.412 2°46.028 -999 2 7.6 102030 98
2005-11-24 07:04:50 51°15.41 2°46.002 -999 2 7.6 102030 98
2005-11-24 07:04:55 51°15.408 2°45.975 -999 3 7.7 102020 98
2005-11-24 07:05:00 51°15.406 2°45.949 -999 2 7.7 102020 98
2005-11-24 07:05:05 51°15.404 2°45.923 -999 1 7.7 102020 98
2005-11-24 07:05:10 51°15.402 2°45.897 -999 1 7.7 102020 98
2005-11-24 07:05:15 51°15.401 2°45.871 -999 2 7.7 102020 98
2005-11-24 07:05:20 51°15.399 2°45.844 -999 -999 7.7 102020 98
2005-11-24 07:05:25 51°15.397 2°45.818 -999 2 7.7 102020 98
2005-11-24 07:05:30 51°15.395 2°45.792 -999 356 7.7 102020 98
2005-11-24 07:05:35 51°15.394 2°45.766 -999 359 7.7 102030 98
2005-11-24 07:05:40 51°15.392 2°45.74 -999 357 7.7 102030 98
2005-11-24 07:05:45 51°15.39 2°45.714 -999 356 7.7 102020 98
2005-11-24 07:05:50 51°15.389 2°45.688 -999 356 7.7 102020 98
2005-11-24 07:05:55 51°15.387 2°45.662 -999 354 7.7 102020 98
2005-11-24 07:06:00 51°15.385 2°45.636 -999 356 7.7 102020 98
2005-11-24 07:06:05 51°15.384 2°45.61 -999 356 7.7 102020 98
2005-11-24 07:06:10 51°15.382 2°45.584 -999 352 7.7 102020 98
2005-11-24 07:06:15 51°15.381 2°45.558 -999 357 7.7 102020 98
2005-11-24 07:06:20 51°15.379 2°45.531 -999 360 7.7 102020 98
2005-11-24 07:06:25 51°15.378 2°45.505 -999 360 7.7 102020 98
2005-11-24 07:06:30 51°15.376 2°45.479 -999 354 7.7 102020 98
2005-11-24 07:06:35 51°15.375 2°45.453 -999 355 7.7 102020 98
2005-11-24 07:06:40 51°15.373 2°45.427 -999 358 7.7 102020 98
2005-11-24 07:06:44 51°15.372 2°45.406 -999 1 7.7 102020 98
2005-11-24 07:06:50 51°15.37 2°45.375 -999 358 7.7 102020 98
2005-11-24 07:06:55 51°15.368 2°45.348 -999 358 7.7 102020 98
2005-11-24 07:07:00 51°15.367 2°45.322 -999 356 7.7 102020 98
2005-11-24 07:07:05 51°15.366 2°45.296 -999 358 7.7 102020 98
2005-11-24 07:07:10 51°15.364 2°45.27 -999 2 7.7 102020 98
2005-11-24 07:07:15 51°15.362 2°45.243 -999 356 7.7 102020 98
2005-11-24 07:07:20 51°15.361 2°45.217 -999 1 7.7 102020 98
2005-11-24 07:07:25 51°15.359 2°45.191 -999 359 7.7 102030 98
2005-11-24 07:07:30 51°15.358 2°45.164 -999 -999 7.7 102030 98
2005-11-24 07:07:35 51°15.356 2°45.138 -999 357 7.7 102020 98
2005-11-24 07:07:40 51°15.355 2°45.112 -999 1 7.7 102020 98
2005-11-24 07:07:44 51°15.354 2°45.09 -999 358 7.7 102030 98
2005-11-24 07:07:50 51°15.352 2°45.059 -999 356 7.7 102030 98
2005-11-24 07:07:55 51°15.35 2°45.032 -999 357 7.7 102030 98
2005-11-24 07:08:00 51°15.349 2°45.006 -999 2 7.7 102030 98
2005-11-24 07:08:05 51°15.347 2°44.98 -999 358 7.7 102040 98
2005-11-24 07:08:10 51°15.346 2°44.953 -999 1 7.7 102040 98
2005-11-24 07:08:15 51°15.344 2°44.927 -999 357 7.7 102030 98
2005-11-24 07:08:20 51°15.343 2°44.901 -999 356 7.7 102030 98
2005-11-24 07:08:25 51°15.342 2°44.874 -999 360 7.7 102020 98
2005-11-24 07:08:30 51°15.34 2°44.848 -999 -999 7.7 102020 98
2005-11-24 07:08:35 51°15.338 2°44.821 -999 357 7.8 102020 97
2005-11-24 07:08:40 51°15.337 2°44.795 -999 359 7.8 102020 97
2005-11-24 07:08:45 51°15.335 2°44.768 -999 359 7.7 102030 98
2005-11-24 07:08:50 51°15.334 2°44.742 -999 354 7.7 102030 98
2005-11-24 07:08:55 51°15.333 2°44.715 -999 355 7.7 102030 98
2005-11-24 07:09:00 51°15.331 2°44.689 -999 353 7.7 102030 98
2005-11-24 07:09:05 51°15.33 2°44.663 -999 353 7.8 102030 98
2005-11-24 07:09:10 51°15.328 2°44.636 -999 351 7.8 102030 98
2005-11-24 07:09:15 51°15.327 2°44.61 -999 353 7.8 102030 98
2005-11-24 07:09:20 51°15.326 2°44.583 -999 352 7.8 102030 98
2005-11-24 07:09:25 51°15.326 2°44.556 -999 353 7.8 102020 98
2005-11-24 07:09:30 51°15.326 2°44.53 -999 353 7.8 102020 98
2005-11-24 07:09:35 51°15.325 2°44.503 -999 356 7.8 102030 97
2005-11-24 07:09:40 51°15.325 2°44.476 -999 356 7.8 102030 97
2005-11-24 07:09:45 51°15.325 2°44.45 -999 352 7.8 102020 97
2005-11-24 07:09:50 51°15.324 2°44.423 -999 352 7.8 102020 97
2005-11-24 07:09:55 51°15.324 2°44.396 -999 351 7.8 102020 97
2005-11-24 07:10:00 51°15.324 2°44.37 -999 355 7.8 102020 97
2005-11-24 07:10:05 51°15.323 2°44.343 -999 355 7.9 102030 97
2005-11-24 07:10:10 51°15.323 2°44.316 -999 358 7.9 102030 97
2005-11-24 07:10:15 51°15.323 2°44.29 -999 357 7.9 102030 97
2005-11-24 07:10:20 51°15.323 2°44.263 -999 357 7.9 102030 97
2005-11-24 07:10:25 51°15.322 2°44.236 -999 355 7.9 102030 98
2005-11-24 07:10:30 51°15.322 2°44.21 -999 357 7.9 102030 98
2005-11-24 07:10:35 51°15.322 2°44.183 -999 358 7.9 102030 97
2005-11-24 07:10:40 51°15.321 2°44.156 -999 354 7.9 102030 97
2005-11-24 07:10:44 51°15.321 2°44.135 -999 356 7.9 102020 97
2005-11-24 07:10:50 51°15.321 2°44.103 -999 356 7.9 102020 97
2005-11-24 07:10:55 51°15.321 2°44.076 -999 356 7.9 102020 97
2005-11-24 07:11:00 51°15.321 2°44.05 -999 354 7.9 102020 97
2005-11-24 07:11:05 51°15.321 2°44.023 -999 357 7.8 102020 97
2005-11-24 07:11:10 51°15.321 2°43.997 -999 356 7.8 102020 97
2005-11-24 07:11:15 51°15.32 2°43.97 -999 358 7.8 102020 97
2005-11-24 07:11:20 51°15.32 2°43.944 -999 3 7.8 102020 97
2005-11-24 07:11:25 51°15.32 2°43.917 -999 1 7.8 102020 97
2005-11-24 07:11:30 51°15.319 2°43.89 -999 358 7.8 102020 97
2005-11-24 07:11:35 51°15.319 2°43.863 -999 354 7.8 102020 97
2005-11-24 07:11:40 51°15.319 2°43.837 -999 -999 7.8 102020 97
2005-11-24 07:11:44 51°15.319 2°43.815 -999 2 7.9 102020 97
2005-11-24 07:11:50 51°15.319 2°43.784 -999 358 7.9 102020 97
2005-11-24 07:11:55 51°15.319 2°43.757 -999 358 7.9 102020 97
2005-11-24 07:12:00 51°15.318 2°43.731 -999 353 7.9 102020 97
2005-11-24 07:12:05 51°15.318 2°43.704 -999 354 7.9 102020 97
2005-11-24 07:12:10 51°15.318 2°43.677 -999 355 7.9 102020 97
2005-11-24 07:12:15 51°15.318 2°43.651 -999 357 7.9 102040 97
2005-11-24 07:12:20 51°15.318 2°43.624 -999 355 7.9 102040 97
2005-11-24 07:12:25 51°15.318 2°43.598 -999 356 7.9 102040 97
2005-11-24 07:12:30 51°15.317 2°43.571 -999 355 7.9 102040 97
2005-11-24 07:12:35 51°15.317 2°43.544 -999 357 7.9 102040 97
2005-11-24 07:12:40 51°15.317 2°43.518 -999 360 7.9 102040 97
2005-11-24 07:12:45 51°15.317 2°43.491 -999 356 7.9 102030 97
2005-11-24 07:12:50 51°15.317 2°43.464 -999 354 7.9 102030 97
2005-11-24 07:12:55 51°15.317 2°43.438 -999 357 7.9 102040 97
2005-11-24 07:13:00 51°15.316 2°43.411 -999 355 7.9 102040 97
2005-11-24 07:13:05 51°15.316 2°43.385 -999 355 7.9 102040 97
2005-11-24 07:13:10 51°15.316 2°43.358 -999 356 7.9 102040 97
2005-11-24 07:13:15 51°15.316 2°43.332 -999 354 7.9 102030 97
2005-11-24 07:13:20 51°15.316 2°43.305 -999 353 7.9 102030 97
2005-11-24 07:13:25 51°15.315 2°43.279 -999 352 7.9 102030 97
2005-11-24 07:13:30 51°15.316 2°43.252 -999 351 7.9 102030 97
2005-11-24 07:13:35 51°15.315 2°43.226 -999 351 7.9 102040 97
2005-11-24 07:13:40 51°15.315 2°43.199 -999 355 7.9 102040 97
2005-11-24 07:13:45 51°15.315 2°43.172 -999 357 7.9 102030 96
2005-11-24 07:13:50 51°15.315 2°43.146 -999 350 7.9 102030 96
2005-11-24 07:13:55 51°15.314 2°43.119 -999 352 7.8 102030 96
2005-11-24 07:14:00 51°15.314 2°43.092 -999 355 7.8 102030 96
2005-11-24 07:14:05 51°15.313 2°43.066 -999 359 7.8 102020 96
2005-11-24 07:14:10 51°15.313 2°43.039 -999 354 7.8 102020 96
2005-11-24 07:14:15 51°15.313 2°43.013 -999 355 7.8 102020 96
2005-11-24 07:14:20 51°15.314 2°42.986 -999 355 7.8 102020 96
2005-11-24 07:14:25 51°15.315 2°42.959 -999 355 7.8 102060 96
2005-11-24 07:14:30 51°15.317 2°42.932 -999 349 7.8 102060 96
2005-11-24 07:14:35 51°15.319 2°42.906 -999 351 7.8 102020 96
2005-11-24 07:14:40 51°15.32 2°42.879 -999 349 7.8 102020 96
2005-11-24 07:14:44 51°15.321 2°42.858 -999 350 7.8 102020 96
2005-11-24 07:14:50 51°15.323 2°42.826 -999 348 7.8 102020 96
2005-11-24 07:14:55 51°15.324 2°42.799 -999 351 7.8 102020 96
2005-11-24 07:15:00 51°15.326 2°42.772 -999 349 7.8 102020 96
2005-11-24 07:15:05 51°15.327 2°42.746 -999 348 7.8 102020 96
2005-11-24 07:15:10 51°15.328 2°42.719 -999 353 7.8 102020 96
2005-11-24 07:15:15 51°15.33 2°42.692 -999 353 7.8 102020 96
2005-11-24 07:15:20 51°15.331 2°42.666 -999 355 7.8 102020 96
2005-11-24 07:15:25 51°15.332 2°42.639 -999 354 7.8 102010 96
2005-11-24 07:15:30 51°15.333 2°42.612 -999 351 7.8 102010 96
2005-11-24 07:15:35 51°15.335 2°42.586 -999 350 7.8 102010 96
2005-11-24 07:15:40 51°15.336 2°42.559 -999 350 7.8 102010 96
2005-11-24 07:15:44 51°15.337 2°42.538 -999 351 7.9 102040 96
2005-11-24 07:15:50 51°15.339 2°42.506 -999 351 7.9 102040 96
2005-11-24 07:15:55 51°15.34 2°42.479 -999 351 7.9 102020 96
2005-11-24 07:16:00 51°15.341 2°42.453 -999 353 7.9 102020 96
2005-11-24 07:16:05 51°15.343 2°42.426 -999 355 7.9 102010 96
2005-11-24 07:16:10 51°15.344 2°42.399 -999 352 7.9 102010 96
2005-11-24 07:16:15 51°15.345 2°42.373 -999 352 7.9 102040 96
2005-11-24 07:16:20 51°15.346 2°42.346 -999 348 7.9 102040 96
2005-11-24 07:16:25 51°15.347 2°42.319 -999 353 7.9 102010 96
2005-11-24 07:16:30 51°15.348 2°42.292 -999 351 7.9 102010 96
2005-11-24 07:16:35 51°15.35 2°42.266 -999 352 7.9 102020 96
2005-11-24 07:16:40 51°15.351 2°42.239 -999 348 7.9 102020 96
2005-11-24 07:16:45 51°15.353 2°42.212 -999 348 7.9 102020 96
2005-11-24 07:16:50 51°15.354 2°42.186 -999 350 7.9 102020 96
2005-11-24 07:16:55 51°15.355 2°42.159 -999 346 7.9 102010 96
2005-11-24 07:17:00 51°15.357 2°42.132 -999 349 7.9 102010 96
2005-11-24 07:17:05 51°15.358 2°42.105 -999 347 7.9 102020 96
2005-11-24 07:17:10 51°15.36 2°42.079 -999 347 7.9 102020 96
2005-11-24 07:17:15 51°15.361 2°42.052 -999 348 7.9 102010 96
2005-11-24 07:17:20 51°15.362 2°42.025 -999 350 7.9 102010 96
2005-11-24 07:17:25 51°15.364 2°41.998 -999 348 7.9 102000 96
2005-11-24 07:17:30 51°15.365 2°41.972 -999 347 7.9 102000 96
2005-11-24 07:17:35 51°15.367 2°41.945 -999 349 7.9 102000 96
2005-11-24 07:17:40 51°15.368 2°41.918 -999 349 7.9 102000 96
2005-11-24 07:17:44 51°15.369 2°41.896 -999 352 8 102010 96
2005-11-24 07:17:50 51°15.37 2°41.864 -999 349 8 102010 96
2005-11-24 07:17:55 51°15.372 2°41.837 -999 349 8 102010 96
2005-11-24 07:18:00 51°15.373 2°41.81 -999 349 8 102010 96
2005-11-24 07:18:05 51°15.374 2°41.783 -999 349 8 102030 96
2005-11-24 07:18:10 51°15.375 2°41.756 -999 352 8 102030 96
2005-11-24 07:18:15 51°15.377 2°41.729 -999 346 8 102030 96
2005-11-24 07:18:20 51°15.378 2°41.702 -999 344 8 102030 96
2005-11-24 07:18:25 51°15.379 2°41.675 -999 347 8 102030 96
2005-11-24 07:18:30 51°15.38 2°41.648 -999 346 8 102030 96
2005-11-24 07:18:35 51°15.382 2°41.621 -999 347 8 102030 96
2005-11-24 07:18:40 51°15.383 2°41.594 -999 344 8 102030 96
2005-11-24 07:18:45 51°15.384 2°41.567 -999 346 8 102030 96
2005-11-24 07:18:50 51°15.386 2°41.54 -999 345 8 102030 96
2005-11-24 07:18:55 51°15.387 2°41.513 -999 349 8 102020 96
2005-11-24 07:19:00 51°15.389 2°41.486 -999 347 8 102020 96
2005-11-24 07:19:05 51°15.39 2°41.459 -999 349 8 102020 96
2005-11-24 07:19:10 51°15.392 2°41.432 -999 348 8 102020 96
2005-11-24 07:19:15 51°15.393 2°41.405 -999 346 8 102030 96
2005-11-24 07:19:20 51°15.394 2°41.378 -999 345 8 102030 96
2005-11-24 07:19:25 51°15.395 2°41.351 -999 349 8 102030 95
2005-11-24 07:19:30 51°15.397 2°41.324 -999 349 8 102030 95
2005-11-24 07:19:35 51°15.398 2°41.298 -999 346 8 102020 95
2005-11-24 07:19:40 51°15.399 2°41.271 -999 348 8 102020 95
2005-11-24 07:19:45 51°15.401 2°41.245 -999 347 8 102020 95
2005-11-24 07:19:50 51°15.402 2°41.221 -999 348 8 102020 95
2005-11-24 07:19:55 51°15.403 2°41.199 -999 350 8 102030 95
2005-11-24 07:20:00 51°15.405 2°41.18 -999 347 8 102030 95
2005-11-24 07:20:05 51°15.406 2°41.162 -999 345 8 102030 95
2005-11-24 07:20:10 51°15.408 2°41.146 -999 343 8 102030 95
2005-11-24 07:20:15 51°15.411 2°41.131 -999 340 8 102040 95
2005-11-24 07:20:20 51°15.413 2°41.118 -999 335 8 102040 95
2005-11-24 07:20:25 51°15.416 2°41.106 -999 333 8 102040 95
2005-11-24 07:20:30 51°15.419 2°41.095 -999 331 8 102040 95
2005-11-24 07:20:35 51°15.422 2°41.084 -999 332 8.1 102040 95
2005-11-24 07:20:40 51°15.425 2°41.075 -999 328 8.1 102040 95
2005-11-24 07:20:45 51°15.428 2°41.066 -999 329 8.1 102030 95
2005-11-24 07:20:50 51°15.431 2°41.057 -999 322 8.1 102030 95
2005-11-24 07:20:55 51°15.435 2°41.049 -999 322 8 102040 95
2005-11-24 07:21:00 51°15.438 2°41.042 -999 322 8 102040 95
2005-11-24 07:21:05 51°15.442 2°41.035 -999 316 8 102040 94
2005-11-24 07:21:10 51°15.445 2°41.03 -999 313 8 102040 94
2005-11-24 07:21:15 51°15.449 2°41.024 -999 310 8 102040 95
2005-11-24 07:21:20 51°15.453 2°41.019 -999 237 8 102040 95
2005-11-24 07:21:25 51°15.456 2°41.016 -999 308 8 102040 95
2005-11-24 07:21:30 51°15.459 2°41.013 -999 299 8 102040 95
2005-11-24 07:21:35 51°15.462 2°41.011 -999 299 8 102040 95
2005-11-24 07:21:40 51°15.464 2°41.01 -999 293 8 102040 95
2005-11-24 07:21:44 51°15.465 2°41.01 -999 296 8 102040 95
2005-11-24 07:21:50 51°15.468 2°41.011 -999 294 8 102040 95
2005-11-24 07:21:55 51°15.469 2°41.013 -999 290 8.1 102040 95
2005-11-24 07:22:00 51°15.47 2°41.014 -999 291 8.1 102040 95
2005-11-24 07:22:05 51°15.472 2°41.016 -999 291 8.1 102050 95
2005-11-24 07:22:10 51°15.473 2°41.018 -999 290 8.1 102050 95
2005-11-24 07:22:15 51°15.475 2°41.019 -999 290 8.1 102040 95
2005-11-24 07:22:20 51°15.476 2°41.021 -999 284 8.1 102040 95
2005-11-24 07:22:25 51°15.478 2°41.023 -999 282 8 102040 94
2005-11-24 07:22:30 51°15.479 2°41.025 -999 276 8 102040 94
2005-11-24 07:22:35 51°15.481 2°41.026 -999 275 8.1 102040 94
2005-11-24 07:22:40 51°15.482 2°41.028 -999 272 8.1 102040 94
2005-11-24 07:22:44 51°15.483 2°41.03 -999 273 8.1 102050 94
2005-11-24 07:22:50 51°15.485 2°41.032 -999 271 8.1 102050 94
2005-11-24 07:22:55 51°15.487 2°41.034 -999 264 8 102050 94
2005-11-24 07:23:00 51°15.489 2°41.036 -999 258 8 102050 94
2005-11-24 07:23:04 51°15.49 2°41.037 -999 263 8 102050 94
2005-11-24 07:23:10 51°15.492 2°41.04 -999 262 8 102050 94
2005-11-24 07:23:15 51°15.493 2°41.041 -999 261 8 102050 94
2005-11-24 07:23:20 51°15.495 2°41.043 -999 262 8 102050 94
2005-11-24 07:23:24 51°15.496 2°41.045 -999 263 8 102060 94
2005-11-24 07:23:30 51°15.498 2°41.047 -999 258 8 102060 94
2005-11-24 07:23:35 51°15.499 2°41.049 -999 251 8 102060 94
2005-11-24 07:23:40 51°15.501 2°41.051 -999 259 8 102060 94
2005-11-24 07:23:44 51°15.502 2°41.052 -999 258 8 102060 93
2005-11-24 07:23:50 51°15.504 2°41.055 -999 258 8 102060 93
2005-11-24 07:23:55 51°15.506 2°41.057 -999 254 8 102060 93
2005-11-24 07:24:00 51°15.507 2°41.059 -999 259 8 102060 93
2005-11-24 07:24:04 51°15.508 2°41.06 -999 253 8 102060 93
2005-11-24 07:24:10 51°15.51 2°41.063 -999 255 8 102060 93
2005-11-24 07:24:15 51°15.512 2°41.065 -999 247 8 102060 93
2005-11-24 07:24:20 51°15.513 2°41.067 -999 257 8 102060 93
2005-11-24 07:24:24 51°15.514 2°41.069 -999 253 8 102060 93
2005-11-24 07:24:30 51°15.516 2°41.071 -999 255 8 102060 93
2005-11-24 07:24:35 51°15.518 2°41.073 -999 248 8 102050 93
2005-11-24 07:24:40 51°15.519 2°41.076 -999 251 8 102050 93
2005-11-24 07:24:45 51°15.521 2°41.078 -999 254 8.1 102050 93
2005-11-24 07:24:50 51°15.522 2°41.08 -999 258 8.1 102050 93
2005-11-24 07:24:55 51°15.524 2°41.082 -999 254 8 102050 93
2005-11-24 07:25:00 51°15.526 2°41.084 -999 256 8 102050 93
2005-11-24 07:25:05 51°15.528 2°41.085 -999 252 8 102050 93
2005-11-24 07:25:10 51°15.532 2°41.086 -999 261 8 102050 93
2005-11-24 07:25:15 51°15.537 2°41.085 -999 270 8 102060 92
2005-11-24 07:25:20 51°15.542 2°41.084 -999 287 8 102060 92
2005-11-24 07:25:25 51°15.548 2°41.08 -999 298 8.1 102060 92
2005-11-24 07:25:30 51°15.554 2°41.074 -999 303 8.1 102060 92
2005-11-24 07:25:35 51°15.56 2°41.067 -999 304 8.1 102050 93
2005-11-24 07:25:40 51°15.566 2°41.058 -999 314 8.1 102050 93
2005-11-24 07:25:45 51°15.572 2°41.047 -999 317 8.1 102050 93
2005-11-24 07:25:50 51°15.576 2°41.034 -999 330 8.1 102050 93
2005-11-24 07:25:55 51°15.58 2°41.021 -999 328 8.1 102040 93
2005-11-24 07:26:00 51°15.583 2°41.006 -999 341 8.1 102040 93
2005-11-24 07:26:05 51°15.585 2°40.989 -999 342 8.1 102030 93
2005-11-24 07:26:10 51°15.586 2°40.971 -999 351 8.1 102030 93
2005-11-24 07:26:15 51°15.587 2°40.951 -999 349 8.1 102030 92
2005-11-24 07:26:20 51°15.588 2°40.929 -999 348 8.1 102030 92
2005-11-24 07:26:25 51°15.588 2°40.906 -999 347 8.1 102020 92
2005-11-24 07:26:30 51°15.589 2°40.883 -999 346 8.1 102020 92
2005-11-24 07:26:35 51°15.59 2°40.858 -999 348 8.1 102020 92
2005-11-24 07:26:40 51°15.591 2°40.833 -999 354 8.1 102020 92
2005-11-24 07:26:45 51°15.59 2°40.808 -999 354 8.2 102020 92
2005-11-24 07:26:50 51°15.589 2°40.782 -999 352 8.2 102020 92
2005-11-24 07:26:55 51°15.588 2°40.756 -999 354 8.2 102020 92
2005-11-24 07:27:00 51°15.587 2°40.729 -999 352 8.2 102020 92
2005-11-24 07:27:05 51°15.585 2°40.703 -999 349 8.2 102010 92
2005-11-24 07:27:10 51°15.583 2°40.677 -999 352 8.2 102010 92
2005-11-24 07:27:15 51°15.582 2°40.651 -999 354 8.2 102000 92
2005-11-24 07:27:20 51°15.579 2°40.624 -999 354 8.2 102000 92
2005-11-24 07:27:24 51°15.578 2°40.603 -999 357 8.2 102000 92
2005-11-24 07:27:30 51°15.576 2°40.571 -999 357 8.2 102000 92
2005-11-24 07:27:35 51°15.574 2°40.545 -999 358 8.2 102000 92
2005-11-24 07:27:40 51°15.573 2°40.518 -999 358 8.2 102000 92
2005-11-24 07:27:45 51°15.571 2°40.492 -999 353 8.2 102010 92
2005-11-24 07:27:50 51°15.57 2°40.465 -999 3 8.2 102010 92
2005-11-24 07:27:55 51°15.569 2°40.439 -999 356 8.3 102020 92
2005-11-24 07:28:00 51°15.567 2°40.412 -999 5 8.3 102020 92
2005-11-24 07:28:05 51°15.565 2°40.386 -999 -999 8.2 102000 92
2005-11-24 07:28:10 51°15.564 2°40.359 -999 -999 8.2 102000 92
2005-11-24 07:28:15 51°15.562 2°40.332 -999 357 8.3 102010 92
2005-11-24 07:28:20 51°15.56 2°40.306 -999 357 8.3 102010 92
2005-11-24 07:28:25 51°15.559 2°40.279 -999 357 8.3 102000 92
2005-11-24 07:28:30 51°15.558 2°40.252 -999 2 8.3 102000 92
2005-11-24 07:28:35 51°15.556 2°40.225 -999 355 8.2 102010 91
2005-11-24 07:28:40 51°15.555 2°40.199 -999 358 8.2 102010 91
2005-11-24 07:28:45 51°15.553 2°40.172 -999 357 8.3 102010 91
2005-11-24 07:28:50 51°15.552 2°40.146 -999 357 8.3 102010 91
2005-11-24 07:28:55 51°15.55 2°40.119 -999 356 8.3 102000 91
2005-11-24 07:29:00 51°15.549 2°40.092 -999 357 8.3 102000 91
2005-11-24 07:29:05 51°15.548 2°40.066 -999 357 8.3 102000 91
2005-11-24 07:29:10 51°15.547 2°40.039 -999 356 8.3 102000 91
2005-11-24 07:29:15 51°15.545 2°40.013 -999 356 8.3 101990 90